[[{"header":{"parameterUnit":"m.s-1","parameterCategory":1,"la1":30.2991,"la2":30.254,"lo1":-89.0895,"lo2":-89.0444,"dy":0.0017,"dx":0.0017,"nx":28,"ny":28,"refTime":"2023-09-29T09:00:00:Z","depth":0,"parameterNumber":2,"parameterNumberName":"U-component_of_WINDS"},"data":[0,0,0,0,0,0,0,0,0,0,0,0,0,0,0,0,0,0,0,0,0,0,0,0,0,0,0,0,0,0,0,0,0,0,0,0,0,0,0,0,0,0,0,0,0,0,0,0,0,0,0,0,0,0,0,0,0,0,-3.8732,-3.8733,0,-3.8827,-3.8828,-3.8829,-3.8725,-3.8721,-3.8717,-3.8713,-3.8813,-3.882,-3.8826,0,0,0,0,0,0,0,0,0,0,0,0,0,-3.8463,-3.8469,-3.8732,-3.8734,-3.8735,-3.8827,-3.8828,-3.8829,-3.8725,-3.8721,-3.8716,-3.8711,-3.8811,-3.8819,-3.8826,0,0,0,0,0,0,0,0,0,0,0,0,0,-3.8572,-3.8471,-3.8732,-3.8694,-3.8691,-3.8827,-3.8828,-3.883,-3.8726,-3.872,-3.8714,-3.8709,-3.8809,-3.8818,-3.8828,-3.9006,0,0,-3.8857,-3.8861,0,0,0,0,0,0,0,0,-3.8566,-3.8582,-3.8698,-3.8697,-3.8694,-3.8758,-3.877,-3.8889,-3.8728,-3.8713,-3.8713,-3.8706,-3.88,-3.881,-3.8841,-3.9011,-3.9015,-3.8858,-3.8863,-3.8868,-3.887,0,0,0,0,0,0,0,-3.8558,-3.8577,-3.877,-3.87,-3.8698,-3.8672,-3.8681,-3.8792,-3.8789,-3.8714,-3.8707,-3.8719,-3.8798,-3.8832,-3.8842,-3.9017,-3.8857,-3.8866,-3.8872,-3.8876,-3.9337,-3.9344,0,0,0,0,0,0,-3.8555,-3.8571,-3.8767,-3.8773,-3.8614,-3.8682,-3.8692,-3.8744,-3.8788,-3.8788,-3.8724,-3.8714,-3.8818,-3.8831,-3.8846,-3.9057,-3.8868,-3.8877,-3.8882,-3.9331,-3.9339,-3.9346,0,0,0,0,0,0,-3.8549,-3.8573,-3.8763,-3.867,-3.8692,-3.8693,-3.8752,-3.8749,-3.8782,-3.8795,-3.8794,-3.876,-3.8814,-3.8832,-3.8967,-3.9059,-3.8881,-3.889,-3.9323,-3.9333,-3.9342,-3.9482,0,0,0,0,0,0,-3.8542,-3.8572,-3.8639,-3.8672,-3.8698,-3.8882,-3.8758,-3.8755,-3.8799,-3.8786,-3.8828,-3.8829,-3.8811,-3.8953,-3.8976,-3.9069,-3.8897,-3.9315,-3.9328,-3.9339,-3.9469,-3.9495,-3.9518,0,0,0,0,0,-3.8533,-3.8676,-3.8643,-3.8668,-3.8782,-3.8888,-3.8902,-3.8877,-3.8807,-3.8875,-3.8883,-3.8828,-3.9045,-3.8968,-3.8993,-3.909,-3.9309,-3.9324,-3.9338,-3.9458,-3.949,-3.9517,0,0,0,0,0,0,-3.8655,-3.868,-3.8644,-3.8802,-3.8843,-3.887,-3.8955,-3.8912,-3.8976,-3.8961,-3.8929,-3.8939,-3.9082,-3.9099,-3.9012,-3.9265,-3.9166,-3.9186,-3.9248,-3.9279,-3.9303,-3.9295,-3.8905,0,0,0,0,0,-3.8701,-3.8784,-3.8801,-3.8938,-3.8961,-3.8955,-3.9,-3.8977,-3.9019,-3.9037,-3.9054,-3.9098,-3.9176,-3.9228,-3.9301,-3.9471,-3.9479,-3.955,-3.9575,-3.9595,-3.9613,-3.9703,-3.9735,-3.9394,-3.9394,-3.9394,0,0,-3.8795,-3.8819,-3.8873,-3.8964,-3.8993,-3.908,-3.897,-3.9068,-3.9132,-3.9052,-3.9179,-3.9194,-3.9241,-3.9394,-3.9462,-3.9413,-3.9709,-3.9613,-3.9629,-3.9636,-3.9722,-3.9754,-3.9783,-3.9404,-3.9402,-3.9401,0,0,-3.9012,-3.9038,-3.9155,-3.9187,-3.9232,-3.9227,-3.9255,-3.9288,-3.9295,-3.9422,-3.9363,-3.944,-3.9575,-3.961,-3.9646,-3.9875,-3.9827,-3.99,-4.0027,-4.0116,-4.0143,-4.0166,-4.0248,-4.0278,-3.9918,-3.9918,-3.9919,0,-3.9124,-3.9252,-3.9221,-3.9322,-3.9364,-3.9293,-3.9412,-3.9444,-3.9512,-3.9542,-3.9486,-3.9653,-3.968,-3.984,-3.9895,-3.9927,-3.9958,-3.9895,-4.0141,-4.0165,-4.0186,-4.0264,-4.0294,-3.9927,-3.9926,-3.9925,-3.9924,0,-3.9388,-3.9478,-3.9567,-3.9632,-3.9684,-3.9793,-3.9779,-3.9835,-3.9807,-3.9808,-3.9938,-3.9968,-4.0044,-4.0081,-4.0056,-4.0237,-4.0205,-4.0146,-4.0045,-4.0228,-4.03,-4.0329,-3.9939,-3.9936,-3.9933,-3.9931,0,0,-3.9686,-3.9731,-3.9764,-3.9793,-3.9837,-3.9906,-4.0013,-4.0086,-4.0135,-4.0184,-4.0272,-4.0387,-4.0332,-4.0373,-4.0351,-4.0429,-4.0608,-4.0359,-4.036,-4.0404,-4.081,-4.0854,-4.0889,-4.0576,-4.0582,-4.0586,-4.0805,0,-3.9903,-4.0085,-4.006,-4.0236,-4.0318,-4.0252,-4.0344,-4.0382,-4.0386,-4.0457,-4.0461,-4.0543,-4.0464,-4.0488,-4.0562,-4.057,-4.0689,-4.0554,-4.0658,-4.0663,-4.0648,-4.0926,-4.0974,-4.1179,-4.0834,-4.0838,-4.0842,0,-4.0181,-4.0238,-4.0422,-4.0452,-4.0486,-4.0569,-4.0634,-4.0703,-4.0744,-4.0741,-4.0786,-4.075,-4.0857,-4.0754,-4.0901,-4.081,-4.0851,-4.0862,-4.0869,-4.0878,-4.0763,-4.0942,-4.1244,-4.1275,-4.0886,-4.0882,-4.0879,0,-4.0378,-4.0502,-4.0627,-4.0654,-4.0693,-4.0753,-4.0772,-4.0807,-4.0853,-4.091,-4.0939,-4.1009,-4.1047,-4.1102,-4.1086,-4.1013,-4.1236,-4.1133,-4.1237,-4.1238,-4.1287,-4.1285,-4.16,-4.1315,-4.1314,-4.1314,-4.1313,0,-4.0623,-4.0739,-4.0716,-4.0794,-4.092,-4.089,-4.1017,-4.1028,-4.106,-4.1139,-4.1086,-4.1162,-4.1135,-4.121,-4.1198,-4.1321,-4.1339,-4.134,-4.1335,-4.1344,-4.1344,-4.1371,-4.1356,-4.1322,-4.132,-4.1318,-4.1317,0,-4.0866,-4.0856,-4.0988,-4.1014,-4.1023,-4.1115,-4.1137,-4.121,-4.1209,-4.1309,-4.1331,-4.133,-4.1414,-4.1403,-4.1498,-4.149,-4.1643,-4.1621,-4.1629,-4.1624,-4.1729,-4.1719,-4.2072,-4.2117,-4.1803,-4.1806,-4.1809,0,-4.1023,-4.111,-4.1144,-4.1192,-4.1215,-4.1294,-4.134,-4.1313,-4.1363,-4.1416,-4.1483,-4.1562,-4.1624,-4.1762,-4.177,-4.1842,-4.1822,-4.1941,-4.1832,-4.1839,-4.1823,-4.1818,-4.1826,-4.1962,-4.1966,-4.1969,-4.1971,0,-4.1302,-4.1293,-4.136,-4.1426,-4.1481,-4.1532,-4.1578,-4.1621,-4.1599,-4.1658,-4.1742,-4.179,-4.1886,-4.1965,-4.2033,-4.2053,-4.2009,-4.2005,-4.2033,-4.2043,-4.2043,-4.2044,-4.1687,-4.1997,-4.1994,-4.1992,-4.1991,-4.199,-4.1507,-4.158,-4.1615,-4.1692,-4.1723,-4.1767,-4.1836,-4.1843,-4.1912,-4.1987,-4.1968,-4.2064,-4.2102,-4.2188,-4.2216,-4.2291,-4.2247,-4.2288,-4.2298,-4.2309,-4.2321,-4.2032,-4.2303,-4.2302,-4.2302,-4.2301,-4.23,0,-4.1783,-4.1802,-4.1872,-4.1937,-4.1997,-4.1949,-4.1997,-4.2051,-4.2135,-4.2174,-4.2236,-4.2333,-4.2409,-4.2423,-4.2496,-4.2554,-4.2535,-4.2574,-4.2569,-4.2575,-4.2356,-4.2324,-4.2587,-4.2587,-4.2587,-4.2587,-4.2587,-4.2587,-4.1933,-4.2055,-4.2049,-4.2186,-4.2204,-4.2296,-4.2327,-4.2368,-4.2398,-4.2509,-4.2571,-4.2579,-4.2609,-4.2683,-4.2751,-4.2753,-4.2783,-4.2829,-4.2824,-4.2619,-4.259,-4.2563,-4.2533,-4.2836,-4.2836,-4.3036,-4.3038,-4.3039]},{"header":{"parameterUnit":"m.s-1","parameterCategory":1,"la1":30.2991,"la2":30.254,"lo1":-89.0895,"lo2":-89.0444,"dy":0.0017,"dx":0.0017,"nx":28,"ny":28,"refTime":"2023-09-29T09:00:00:Z","depth":0,"parameterNumber":3,"parameterNumberName":"V-component_of_WINDS"},"data":[0,0,0,0,0,0,0,0,0,0,0,0,0,0,0,0,0,0,0,0,0,0,0,0,0,0,0,0,0,0,0,0,0,0,0,0,0,0,0,0,0,0,0,0,0,0,0,0,0,0,0,0,0,0,0,0,0,0,-1.3442,-1.3442,0,-1.3462,-1.3463,-1.3463,-1.3484,-1.3485,-1.3485,-1.3485,-1.3505,-1.3505,-1.3506,0,0,0,0,0,0,0,0,0,0,0,0,0,-1.3419,-1.342,-1.3442,-1.3442,-1.3442,-1.3462,-1.3463,-1.3463,-1.3484,-1.3485,-1.3485,-1.3485,-1.3505,-1.3505,-1.3506,0,0,0,0,0,0,0,0,0,0,0,0,0,-1.3433,-1.342,-1.3442,-1.3455,-1.3457,-1.3462,-1.3463,-1.3463,-1.3484,-1.3485,-1.3485,-1.3486,-1.3505,-1.3505,-1.3506,-1.3499,0,0,-1.3507,-1.3507,0,0,0,0,0,0,0,0,-1.3433,-1.3434,-1.3453,-1.3454,-1.3456,-1.3471,-1.3462,-1.3475,-1.3484,-1.3474,-1.3485,-1.3486,-1.3493,-1.3495,-1.3498,-1.35,-1.3501,-1.3507,-1.3507,-1.3507,-1.3507,0,0,0,0,0,0,0,-1.3432,-1.3433,-1.345,-1.3453,-1.3455,-1.346,-1.3462,-1.3465,-1.3481,-1.3475,-1.3476,-1.3479,-1.3494,-1.3497,-1.3498,-1.3501,-1.3507,-1.3507,-1.3507,-1.3507,-1.3498,-1.3497,0,0,0,0,0,0,-1.3429,-1.3432,-1.3449,-1.345,-1.3445,-1.346,-1.3463,-1.3466,-1.3481,-1.3484,-1.3478,-1.348,-1.3496,-1.3498,-1.3499,-1.3492,-1.3507,-1.3508,-1.3508,-1.3498,-1.3498,-1.3497,0,0,0,0,0,0,-1.3428,-1.343,-1.3448,-1.3442,-1.3445,-1.346,-1.3463,-1.3466,-1.3469,-1.3483,-1.3486,-1.3478,-1.3497,-1.3498,-1.3499,-1.3493,-1.3508,-1.3508,-1.3499,-1.3498,-1.3497,-1.3477,0,0,0,0,0,0,-1.3427,-1.343,-1.3428,-1.3442,-1.3445,-1.3448,-1.3463,-1.3466,-1.347,-1.3472,-1.3484,-1.3487,-1.3497,-1.3498,-1.3499,-1.3493,-1.3508,-1.3499,-1.3499,-1.3498,-1.3478,-1.3475,-1.3473,0,0,0,0,0,-1.3427,-1.3421,-1.3427,-1.3429,-1.3443,-1.3448,-1.3449,-1.3462,-1.3469,-1.3467,-1.3476,-1.3486,-1.3493,-1.3498,-1.3499,-1.3493,-1.35,-1.3499,-1.3498,-1.3479,-1.3476,-1.3473,0,0,0,0,0,0,-1.3405,-1.3423,-1.343,-1.3429,-1.3437,-1.3451,-1.3449,-1.3458,-1.3464,-1.3465,-1.348,-1.3483,-1.3481,-1.3487,-1.3492,-1.3487,-1.3498,-1.3497,-1.3483,-1.348,-1.3478,-1.3476,-1.3509,0,0,0,0,0,-1.34,-1.3403,-1.3419,-1.3416,-1.3419,-1.3433,-1.3436,-1.3445,-1.3453,-1.3457,-1.3466,-1.3473,-1.3477,-1.3479,-1.3483,-1.3479,-1.3482,-1.3476,-1.3473,-1.3471,-1.347,-1.3468,-1.3465,-1.3494,-1.3494,-1.3494,0,0,-1.339,-1.34,-1.3401,-1.3412,-1.3419,-1.3421,-1.3436,-1.3438,-1.3439,-1.3457,-1.3458,-1.3464,-1.3474,-1.3471,-1.3471,-1.3477,-1.3463,-1.347,-1.3468,-1.3468,-1.3467,-1.3464,-1.3461,-1.3493,-1.3493,-1.3493,0,0,-1.3373,-1.3381,-1.338,-1.3386,-1.3397,-1.3406,-1.3406,-1.3419,-1.3424,-1.3425,-1.3438,-1.344,-1.3447,-1.3452,-1.3456,-1.3441,-1.345,-1.3442,-1.3429,-1.3427,-1.3424,-1.3422,-1.3416,-1.3414,-1.3441,-1.3441,-1.3441,0,-1.3359,-1.3364,-1.3378,-1.3379,-1.3383,-1.3399,-1.3397,-1.3403,-1.3414,-1.3416,-1.3422,-1.343,-1.3438,-1.3437,-1.3433,-1.3436,-1.3435,-1.344,-1.3424,-1.3422,-1.342,-1.3415,-1.3412,-1.344,-1.344,-1.344,-1.344,0,-1.3346,-1.3348,-1.3346,-1.3356,-1.336,-1.336,-1.3373,-1.3375,-1.3384,-1.3392,-1.3393,-1.3402,-1.3408,-1.3409,-1.3417,-1.3409,-1.3412,-1.3421,-1.3432,-1.3416,-1.3411,-1.3409,-1.3438,-1.3438,-1.3439,-1.3439,0,0,-1.3315,-1.3334,-1.3332,-1.3337,-1.335,-1.3352,-1.3352,-1.3359,-1.336,-1.3367,-1.3367,-1.3372,-1.338,-1.3384,-1.3393,-1.3391,-1.3378,-1.34,-1.34,-1.3395,-1.3369,-1.3362,-1.3359,-1.3384,-1.3384,-1.3384,-1.3368,0,-1.33,-1.3301,-1.3314,-1.3312,-1.3314,-1.3329,-1.3329,-1.3337,-1.3344,-1.3347,-1.3356,-1.3359,-1.3369,-1.3372,-1.3371,-1.3379,-1.3372,-1.3381,-1.3384,-1.3384,-1.338,-1.3357,-1.3349,-1.3334,-1.3366,-1.3366,-1.3365,0,-1.3282,-1.3288,-1.3286,-1.3299,-1.33,-1.33,-1.3306,-1.3309,-1.3318,-1.3323,-1.3328,-1.3339,-1.3339,-1.3349,-1.335,-1.3355,-1.3357,-1.3362,-1.3361,-1.3362,-1.3373,-1.3356,-1.3329,-1.3327,-1.3362,-1.3363,-1.3363,0,-1.326,-1.3268,-1.3267,-1.3271,-1.3285,-1.3285,-1.3291,-1.33,-1.3303,-1.3308,-1.331,-1.3316,-1.3319,-1.3323,-1.3334,-1.3341,-1.3333,-1.3345,-1.3337,-1.3337,-1.3335,-1.3335,-1.3308,-1.3337,-1.3337,-1.3337,-1.3337,0,-1.3241,-1.3239,-1.3257,-1.3257,-1.3255,-1.3269,-1.3267,-1.3274,-1.3282,-1.3283,-1.3296,-1.3297,-1.3312,-1.3314,-1.3323,-1.3322,-1.3323,-1.3328,-1.333,-1.3326,-1.3326,-1.3327,-1.3329,-1.3336,-1.3336,-1.3336,-1.3336,0,-1.3215,-1.3228,-1.3228,-1.3242,-1.3245,-1.3243,-1.3254,-1.3254,-1.3263,-1.3264,-1.3265,-1.3279,-1.3282,-1.3294,-1.33,-1.3306,-1.3302,-1.3307,-1.3299,-1.33,-1.3292,-1.3293,-1.3265,-1.3262,-1.3293,-1.3293,-1.3293,0,-1.3202,-1.3201,-1.3215,-1.3216,-1.3222,-1.3225,-1.3228,-1.3241,-1.3244,-1.3253,-1.3252,-1.3257,-1.3261,-1.3265,-1.3275,-1.328,-1.3285,-1.3275,-1.3286,-1.3282,-1.3284,-1.3284,-1.3283,-1.3272,-1.3272,-1.3272,-1.3271,0,-1.3178,-1.3184,-1.3188,-1.3194,-1.3197,-1.3203,-1.3209,-1.3209,-1.3225,-1.3227,-1.3231,-1.3234,-1.324,-1.3244,-1.325,-1.3256,-1.3266,-1.3268,-1.3266,-1.3262,-1.3258,-1.326,-1.3292,-1.3268,-1.3269,-1.3269,-1.3269,-1.3269,-1.3158,-1.3157,-1.3167,-1.3171,-1.3177,-1.3182,-1.3183,-1.3191,-1.3195,-1.3201,-1.3209,-1.3211,-1.322,-1.3229,-1.3234,-1.3236,-1.3241,-1.3239,-1.3239,-1.3238,-1.3236,-1.3258,-1.3237,-1.3237,-1.3237,-1.3237,-1.3238,0,-1.3133,-1.314,-1.3144,-1.3152,-1.3155,-1.3164,-1.3172,-1.3173,-1.3175,-1.3182,-1.3186,-1.319,-1.3194,-1.3204,-1.3209,-1.3209,-1.3213,-1.3209,-1.3209,-1.321,-1.3231,-1.3231,-1.3206,-1.3206,-1.3206,-1.3206,-1.3206,-1.3206,-1.3121,-1.3121,-1.3128,-1.313,-1.3137,-1.3139,-1.3143,-1.3147,-1.3153,-1.3157,-1.316,-1.3167,-1.3175,-1.3181,-1.3185,-1.3188,-1.3188,-1.3183,-1.3187,-1.3206,-1.3209,-1.3212,-1.3213,-1.3183,-1.3183,-1.3167,-1.3167,-1.3166]}]]